Torna al catalogo

KUIPER-00644

AttivoComunicazioniVLEO
NORAD 69788·PAYLOAD·🇺🇸 United States

Lanciato Jul 2, 2026 da Cape Canaveral Space Force Station

Loading…

Prossimi Passaggi (prossime 24 ore)

TLE

AggiornatoSource: CelesTrak SupGP

Epoca: Sep 14, 2026, 21:16 UTC

1 69788C 26151AB  26257.88658565 -.01113500  00000+0 -62729-1 0  2572
2 69788  51.8845 243.5921 0009183  35.0748  51.2947 15.13756464    16

Traccia KUIPER-00644 in tempo reale con AllMySat

Download on the App Store